Change the Weather History Date:

Saturday, March 2, 2013

  Actual Average (KRNO) Record (KRNO)
Temperature  
Mean Temperature 45 °F 43 °F  
Max Temperature 62 °F 55 °F 76 °F (1921)
Min Temperature 28 °F 32 °F 11 °F (1971)
Degree Days  
Heating Degree Days 20 22  
Month to date heating degree days 44  
Since 1 July heating degree days 3682  
Cooling Degree Days 0 0  
Month to date cooling degree days 0  
Year to date cooling degree days 0  
Moisture  
Dew Point 24 °F    
Average Humidity 48    
Maximum Humidity 86    
Minimum Humidity 19    
Precipitation  
Precipitation 0.00 in 0.04 in 0.93 in (2009)
Month to date precipitation 0.08  
Year to date precipitation 2.13  
Snow  
Snow 0.00 in 0.20 in 4.60 in (1974)
Month to date snowfall 0.3  
Since 1 July snowfall 19.3  
Snow Depth -    
Sea Level Pressure  
Sea Level Pressure 30.26 in    
Wind  
Wind Speed 4 mph (WSW)    
Max Wind Speed 23 mph    
Max Gust Speed 29 mph    
Visibility 10 miles    
Events      
T = Trace of Precipitation, MM = Missing Value Source: NWS Daily Summary

Daily Weather History Graph

Daily Weather History Graph

Search for Another Location

Airport or City:

Trip Planner

Search our weather history database for the weather conditions in past years. The results will help you decide how hot, cold, wet, or windy it might be!

Date:

Astronomy

Mar. 02, 2013 Rise Set
Actual Time 6:30 AM PST 5:53 PM PST
Civil Twilight 6:03 AM PST 6:20 PM PST
Nautical Twilight 5:32 AM PST 6:51 PM PST
Astronomical Twilight 5:01 AM PST 7:22 PM PST
Moon 11:37 PM PST (3/2) 9:03 AM PST (3/2)
Length of Visible Light 12h 16m
Length of Day
11h 22m
Waning Gibbous, 73% of the Moon is Illuminated
Mar 2
Waning Gibbous
Mar 4
Last Quarter
Mar 11
New
Mar 19
First Quarter
Mar 27
Full

Hourly Weather History & Observations

Time (PST) Temp. Windchill Dew Point Humidity Pressure Visibility Wind Dir Wind Speed Gust Speed Precip Events Conditions
12:10 AM 32.0 °F 27.5 °F 23.0 °F 69% 30.40 in 10.0 mi North 4.6 mph - N/A   Clear
12:30 AM 33.8 °F - 24.8 °F 70% 30.40 in 10.0 mi Calm Calm - N/A   Clear
12:50 AM 35.6 °F - 24.8 °F 65% 30.39 in 10.0 mi Calm Calm - N/A   Clear
1:15 AM 28.4 °F - 21.2 °F 74% 30.39 in 10.0 mi Calm Calm - N/A   Clear
1:30 AM 32.0 °F 28.7 °F 24.8 °F 75% 30.39 in 10.0 mi North 3.5 mph - N/A   Clear
1:50 AM 32.0 °F - 23.0 °F 69% 30.39 in 10.0 mi Calm Calm - N/A   Clear
2:15 AM 32.0 °F - 23.0 °F 69% 30.38 in 10.0 mi Calm Calm - N/A   Clear
2:30 AM 32.0 °F 28.7 °F 23.0 °F 69% 30.38 in 10.0 mi North 3.5 mph - N/A   Clear
2:50 AM 32.0 °F - 24.8 °F 75% 30.37 in 10.0 mi Calm Calm - N/A   Clear
3:15 AM 28.4 °F 24.6 °F 21.2 °F 74% 30.36 in 10.0 mi WNW 3.5 mph - N/A   Clear
3:35 AM 30.2 °F - 23.0 °F 75% 30.35 in 10.0 mi Calm Calm - N/A   Clear
3:55 AM 32.0 °F - 23.0 °F 69% 30.35 in 10.0 mi Calm Calm - N/A   Clear
4:10 AM 32.0 °F - 24.8 °F 75% 30.34 in 10.0 mi Calm Calm - N/A   Clear
4:30 AM 28.4 °F - 23.0 °F 80% 30.35 in 10.0 mi Calm Calm - N/A   Clear
4:55 AM 32.0 °F 28.7 °F 24.8 °F 75% 30.34 in 10.0 mi ESE 3.5 mph - N/A   Clear
5:10 AM 32.0 °F - 24.8 °F 75% 30.34 in 10.0 mi Calm Calm - N/A   Clear
5:30 AM 28.4 °F 23.3 °F 23.0 °F 80% 30.33 in 10.0 mi ENE 4.6 mph - N/A   Clear
5:55 AM 28.4 °F - 24.8 °F 86% 30.34 in 10.0 mi Calm Calm - N/A   Clear
6:10 AM 28.4 °F - 23.0 °F 80% 30.33 in 10.0 mi Calm Calm - N/A   Clear
6:30 AM 28.4 °F 23.3 °F 23.0 °F 80% 30.32 in 10.0 mi NNW 4.6 mph - N/A   Clear
6:50 AM 28.4 °F 21.2 °F 23.0 °F 80% 30.32 in 10.0 mi North 6.9 mph - N/A   Clear
7:15 AM 30.2 °F 25.4 °F 24.8 °F 80% 30.32 in 10.0 mi ENE 4.6 mph - N/A   Clear
7:35 AM 33.8 °F 29.6 °F 24.8 °F 70% 30.33 in 10.0 mi South 4.6 mph - N/A   Clear
7:55 AM 35.6 °F - 26.6 °F 70% 30.33 in 10.0 mi Calm Calm - N/A   Clear
8:15 AM 39.2 °F 37.0 °F 26.6 °F 61% 30.33 in 10.0 mi SSW 3.5 mph - N/A   Clear
8:35 AM 41.0 °F - 28.4 °F 61% 30.32 in 10.0 mi Calm Calm - N/A   Clear
8:55 AM 44.6 °F - 28.4 °F 53% 30.32 in 10.0 mi Calm Calm - N/A   Clear
9:15 AM 46.4 °F - 26.6 °F 46% 30.31 in 10.0 mi Calm Calm - N/A   Clear
9:35 AM 48.2 °F - 28.4 °F 46% 30.31 in 10.0 mi Calm Calm - N/A   Clear
9:55 AM 48.2 °F - 28.4 °F 46% 30.31 in 10.0 mi Calm Calm - N/A   Clear
10:15 AM 50.0 °F - 26.6 °F 40% 30.31 in 10.0 mi ESE 3.5 mph - N/A   Clear
10:35 AM 51.8 °F - 26.6 °F 38% 30.30 in 10.0 mi Calm Calm - N/A   Clear
10:50 AM 53.6 °F - 26.6 °F 35% 30.29 in 10.0 mi North 5.8 mph - N/A   Clear
11:15 AM 55.4 °F - 24.8 °F 31% 30.29 in 10.0 mi Calm Calm - N/A   Clear
11:30 AM 55.4 °F - 24.8 °F 31% 30.28 in 10.0 mi West 3.5 mph - N/A   Clear
11:50 AM 57.2 °F - 19.4 °F 23% 30.27 in 10.0 mi WSW 9.2 mph - N/A   Clear
12:15 PM 57.2 °F - 19.4 °F 23% 30.26 in 10.0 mi WSW 5.8 mph - N/A   Clear
12:30 PM 57.2 °F - 19.4 °F 23% 30.25 in 10.0 mi West 10.4 mph - N/A   Clear
12:50 PM 57.2 °F - 19.4 °F 23% 30.23 in 10.0 mi SW 5.8 mph - N/A   Clear
1:10 PM 59.0 °F - 19.4 °F 22% 30.22 in 10.0 mi South 3.5 mph - N/A   Clear
1:30 PM 59.0 °F - 21.2 °F 23% 30.21 in 10.0 mi SE 5.8 mph - N/A   Clear
1:50 PM 59.0 °F - 21.2 °F 23% 30.21 in 10.0 mi WSW 12.7 mph 20.7 mph N/A   Clear
2:10 PM 59.0 °F - 21.2 °F 23% 30.20 in 10.0 mi West 18.4 mph 23.0 mph N/A   Clear
2:30 PM 62.6 °F - 19.4 °F 19% 30.19 in 10.0 mi West 23.0 mph 28.8 mph N/A   Clear
2:55 PM 62.6 °F - 19.4 °F 19% 30.18 in 10.0 mi West 18.4 mph 26.5 mph N/A   Clear
3:10 PM 60.8 °F - 19.4 °F 20% 30.18 in 10.0 mi WSW 17.3 mph 25.3 mph N/A   Clear
3:30 PM 60.8 °F - 21.2 °F 22% 30.17 in 10.0 mi WSW 20.7 mph 25.3 mph N/A   Clear
3:50 PM 60.8 °F - 23.0 °F 23% 30.17 in 10.0 mi WSW 17.3 mph 21.9 mph N/A   Clear
4:30 PM 57.2 °F - 23.0 °F 27% 30.17 in 10.0 mi West 15.0 mph 20.7 mph N/A   Clear
4:50 PM 57.2 °F - 23.0 °F 27% 30.17 in 10.0 mi West 12.7 mph - N/A   Clear
5:30 PM 55.4 °F - 23.0 °F 29% 30.18 in 10.0 mi WSW 10.4 mph - N/A   Clear
5:55 PM 53.6 °F - 23.0 °F 30% 30.17 in 10.0 mi West 9.2 mph - N/A   Clear
6:10 PM 53.6 °F - 23.0 °F 30% 30.17 in 10.0 mi WSW 8.1 mph - N/A   Clear
6:30 PM 51.8 °F - 23.0 °F 33% 30.17 in 10.0 mi WSW 9.2 mph - N/A   Clear
6:50 PM 51.8 °F - 23.0 °F 33% 30.17 in 10.0 mi WSW 11.5 mph - N/A   Scattered Clouds
7:10 PM 51.8 °F - 23.0 °F 33% 30.17 in 10.0 mi WSW 15.0 mph - N/A   Overcast
7:30 PM 51.8 °F - 23.0 °F 33% 30.17 in 10.0 mi WSW 11.5 mph - N/A   Overcast
7:50 PM 50.0 °F - 23.0 °F 35% 30.17 in 10.0 mi WSW 10.4 mph - N/A   Overcast
8:10 PM 50.0 °F - 23.0 °F 35% 30.16 in 10.0 mi WSW 6.9 mph - N/A   Overcast
8:30 PM 50.0 °F - 23.0 °F 35% 30.16 in 10.0 mi SW 6.9 mph - N/A   Overcast
8:50 PM 48.2 °F - 23.0 °F 37% 30.16 in 10.0 mi WSW 4.6 mph - N/A   Overcast
9:10 PM 50.0 °F - 23.0 °F 35% 30.16 in 10.0 mi SW 3.5 mph - N/A   Mostly Cloudy
9:30 PM 48.2 °F - 23.0 °F 37% 30.16 in 10.0 mi WSW 6.9 mph - N/A   Overcast
9:50 PM 48.2 °F - 23.0 °F 37% 30.16 in 10.0 mi West 8.1 mph - N/A   Overcast
10:10 PM 46.4 °F 42.4 °F 24.8 °F 43% 30.16 in 10.0 mi West 8.1 mph - N/A   Overcast
10:30 PM 48.2 °F - 26.6 °F 43% 30.15 in 10.0 mi West 8.1 mph - N/A   Overcast
10:50 PM 48.2 °F - 26.6 °F 43% 30.14 in 10.0 mi West 6.9 mph - N/A   Overcast
11:10 PM 48.2 °F - 26.6 °F 43% 30.14 in 10.0 mi WSW 6.9 mph - N/A   Overcast
11:30 PM 48.2 °F - 26.6 °F 43% 30.13 in 10.0 mi WSW 4.6 mph - N/A   Overcast
11:50 PM 48.2 °F - 26.6 °F 43% 30.13 in 10.0 mi Calm Calm - N/A   Overcast